Back to catalog

COSMOS 2251 DEB

AliveLEO
NORAD 37959·DEBRIS·🇷🇺 Russia

Launched Jun 16, 1993 from Plesetsk Cosmodrome

Loading…

Next Passes (next 24 hours)

TLE

FreshSource: Space-Track

Epoch: Sep 13, 2026, 23:48 UTC

1 37959U 93036BPJ 26256.99226293  .00001958  00000-0  40949-3 0  9999
2 37959  74.0063 251.7373 0058417 323.2442  67.3593 14.59471810841419

Track COSMOS 2251 DEB in real time with AllMySat

Download on the App Store